This is the latest recevied weather packets stored in our database for station/object WA6ODQ-13. If no packets are shown the sender has not sent any weather packets the latest 1 day(s).
| Time | Temp. | Humidity | Pressure | Rain* | Wind** | Luminosity | Snow |
|---|---|---|---|---|---|---|---|
| 1778084664 | 16.67° C | 80% | 1018.8 hPa | 0 mm | - | 203 W/m² | - |
| 1778084356 | 16.67° C | 81% | 1018.6 hPa | 0 mm | - | 196 W/m² | - |
| 1778083751 | 16.67° C | 80% | 1018.7 hPa | 0 mm | - | 177 W/m² | - |
| 1778083448 | 16.67° C | 81% | 1018.8 hPa | 0 mm | - | 165 W/m² | - |
| 1778083146 | 16.11° C | 81% | 1018.7 hPa | 0 mm | - | 150 W/m² | - |
| 1778082843 | 16.11° C | 82% | 1018.9 hPa | 0 mm | - | 143 W/m² | - |
| 1778081725 | 15.56° C | 82% | 1018.8 hPa | 0 mm | - | 126 W/m² | - |
| 1778080818 | 15.56° C | 82% | 1018.8 hPa | 0 mm | - | 108 W/m² | - |
| 1778080516 | 15.56° C | 83% | 1018.6 hPa | 0 mm | - | 107 W/m² | - |
| 1778080212 | 15.56° C | 84% | 1018.6 hPa | 0 mm | - | 102 W/m² | - |
| 1778079908 | 15° C | 83% | 1018.8 hPa | 0 mm | - | 100 W/m² | - |
| 1778078394 | 15° C | 84% | 1018.5 hPa | 0 mm | - | 73 W/m² | - |
| 1778077789 | 15° C | 85% | 1018.4 hPa | 0 mm | - | 62 W/m² | - |
| 1778076882 | 14.44° C | 86% | 1018.2 hPa | 0 mm | - | 46 W/m² | - |
| 1778076277 | 14.44° C | 86% | 1018.2 hPa | 0 mm | - | 36 W/m² | - |
| 1778075671 | 13.89° C | 87% | 1018.3 hPa | 0 mm | - | 27 W/m² | - |
| 1778075367 | 13.89° C | 86% | 1018 hPa | 0 mm | - | 23 W/m² | - |
| 1778075063 | 13.89° C | 87% | 1017.9 hPa | 0 mm | - | 20 W/m² | - |
| 1778074457 | 13.89° C | 86% | 1017.9 hPa | 0 mm | - | 13 W/m² | - |
| 1778073851 | 13.89° C | 87% | 1018 hPa | 0 mm | - | 8 W/m² | - |
| 1778073549 | 13.89° C | 87% | 1017.7 hPa | 0 mm | - | 6 W/m² | - |
| 1778072942 | 13.89° C | 86% | 1017.7 hPa | 0 mm | - | 3 W/m² | - |
| 1778071429 | 13.89° C | 85% | 1017.6 hPa | 0 mm | - | 0 W/m² | - |
| 1778071127 | 13.89° C | 85% | 1017.4 hPa | 0 mm | - | 0 W/m² | - |
| 1778070522 | 13.89° C | 85% | 1017.5 hPa | 0 mm | - | 0 W/m² | - |
* Rain latest hour (hover to see other rain measurements)
** Current wind speed in m/s (hover to see current wind gust speed)